Home   Weather   Provo   Past weeks

Flag for USA Past Weather in Provo, Utah, USA — Yesterday and Last 2 Weeks

Now
28 °F

Partly sunny.


Feels Like: 28 °F
Forecast: 18 / 39 °F
Wind: No wind

Location: Provo Municipal

Current Time: Dec 4, 2016 at 11:25:46 am

Latest Report: Dec 4, 2016 at 10:58 am


Visibility: 10 mi

Pressure: 30.19 "Hg (25.35 "Hg at 1386m altitude)

Humidity: 74%

Dew Point: 21 °F

Location of ProvoLocation

Past Weather in Provo — Graph

°F

Provo Temperature Yesterday

Maximum temperature yesterday: 31 °F (at 1:56 pm)
Minimum temperature yesterday: 20 °F (at 2:56 am)
Average temperature yesterday: 26 °F

High & Low Weather Summary for the Past Weeks

 TemperatureHumidityPressure
High63 °F (Nov 19, 2:58 pm)100% (Nov 24, 7:58 am)30.54 "Hg (Nov 24, 7:58 am)
Low18 °F (Dec 4, 7:58 am)9% (Nov 23, 4:58 pm)29.55 "Hg (Nov 27, 2:56 am)
Average36 °F70%30.08 "Hg
* Reported Nov 19 9:58 am — Dec 4 9:58 am, Provo, Weather by CustomWeather, © 2016

Note: Actual official high and low records may vary slightly from our data, if they occured in-between our weather recording intervals... More about our weather records

Advertising

Provo Weather History for the Previous 24 Hours

Scroll right to see more
 ConditionsComfort  
Time TempWeatherWind HumidityBarometerVisibility
9:58 am
Sun, Dec 4
27 °FPartly sunny.10 mph69%30.21 "Hg10 mi
8:58 am23 °FScattered clouds.No wind80%30.22 "Hg10 mi
7:58 am18 °FScattered clouds.3 mph86%30.24 "Hg10 mi
6:58 am19 °FClear.5 mph79%30.24 "Hg10 mi
5:56 am20 °FClear.No wind82%30.33 "Hg10 mi
4:56 am20 °FClear.5 mph78%30.33 "Hg10 mi
3:56 am20 °FClear.No wind82%30.36 "Hg10 mi
1:56 am20 °FClear.5 mph82%30.39 "Hg10 mi
11:56 pm
Sat, Dec 3
22 °FClear.6 mph78%30.41 "Hg10 mi
10:56 pm23 °FClear.3 mph78%30.40 "Hg10 mi
9:56 pm24 °FClear.3 mph84%30.42 "Hg10 mi
8:58 pm27 °FPassing clouds.3 mph80%30.30 "Hg10 mi
7:58 pm28 °FPassing clouds.3 mph74%30.30 "Hg10 mi
6:58 pm30 °FPassing clouds.3 mph69%30.30 "Hg10 mi
5:58 pm30 °FPassing clouds.3 mph64%30.27 "Hg10 mi
4:58 pm30 °FPartly sunny.3 mph69%30.29 "Hg10 mi
3:56 pm31 °FMore clouds than sun.3 mph67%30.38 "Hg10 mi
2:58 pm30 °FOvercast.3 mph64%30.27 "Hg7 mi
1:56 pm31 °FOvercast.No wind61%30.39 "Hg10 mi
12:58 pm28 °FOvercast.No wind64%30.31 "Hg10 mi
11:58 am28 °FOvercast.5 mph64%30.32 "Hg10 mi
Weather by CustomWeather, © 2016

See weather overviewHow to use our weather pages